Weather in Voynovo

Russia / Vladimir Oblast     55°16′12″N   41°37′40″E
temp.,
°C
wind,
m/s
gust,
m/s
humid.,
%
clouds,
%
prec.,
mm/h
press.,
hPa
HPBL,
m
13 june, sun
sun1300:00+15s229499 0.1 100736
03:00+14s229689 0.4 100736
06:00+16s23925 0.1 1007144
09:00+19s348495 0.3 1007550
12:00+22ssw3374100 1.9 1007923
15:00+21wsw3479100 5.4 1007578
18:00+21wsw357996 3.8 1007277
21:00+17sw349182 4.5 100952
14 june, mon
mon1400:00+15sw239447 0.0 101039
03:00+15sw22958 0.0 101136
06:00+17sw239113 0.0 1013125
09:00+21ssw337372 0.0 1014608
12:00+23sw45706 1.6 10141091
15:00+25w34605 2.6 10141372
18:00+24sw236995 0.3 1014129
21:00+20wsw22765 0.4 101433
15 june, tue
tue1500:00+16wsw11895 0.4 101511
03:00+16wnw119110 0.6 101411
06:00+18nw01875 0.0 101568
09:00+23ssw007253 0.1 1014381
12:00+25se1158100 0.4 10131259
15:00+26ssw115672 0.4 1012921
18:00+24s3474100 0.3 1011100
21:00+20ssw118294 0.4 101011
16 june, wed
wed1600:00+18s2291100 1.4 101016
03:00+17ssw239591 2.8 101055
06:00+18s249298 0.1 1010149
09:00+19sw1288100 0.3 1010153
12:00+19wsw2289100 0.4 101098
15:00+21n248156 1.6 1011258
18:00+21n710715 0.3 1012792
21:00+16n410740 0.3 1014227
17 june, thu
thu1700:00+13n411720 0.0 1016182
03:00+11nnw397132 0.0 1018152
06:00+12n38750 0.0 1020235
09:00+17n46530 0.0 1021705
12:00+20nne46420 0.0 10211467
15:00+20nne45460 0.0 10221454
18:00+20ne35615 0.0 1022505
21:00+14nne33750 0.0 102426